World > North America > United States > Illinois

Eola, Illinois Regional Weather

Lat: 41.78N, Lon: 88.24W
Wx Zone: ILZ013Web Search
Eola Weather Warning NWS WEATHER ALERT FOR THE EOLA, IL AREA - Issued: 222 PM CDT Fri May 7 2021 Eola Weather Warning  

Ads allow us to feed your daily addiction for the world's greatest weather information. We're determined to offer quality sponsors, in the least annoying way possible.

Feedback


°F Click to change Eola hourly weather to Imperial units.Click to change Eola hourly weather to Metric units. °C
Eola Weather Map
UTC Time: 5/7/2021, 19:57
Your Time:

Eola, IL Regional Weather

Expires:202105072000;;747654
ASUS43 KLOT 071909
RWRIL 

ILLINOIS REGIONAL WEATHER ROUNDUP
NATIONAL WEATHER SERVICE CHICAGO/ROMEOVILLE IL
200 PM CDT FRI MAY 07 2021

NOTE: "FAIR" INDICATES FEW OR NO CLOUDS BELOW 12,000 FEET WITH NO
SIGNIFICANT WEATHER AND/OR OBSTRUCTIONS TO VISIBILITY.

* THESE STATIONS ARE NOT UNDER NWS QUALITY CONTROL. THEY ALSO MAY NOT
  REPORT WEATHER SUCH AS PRECIPITATION OR FOG.


ILZ005-006-012>014-019>023-072000-
NORTHEAST ILLINOIS
  
CITY           SKY/WX    TMP DP  RH WIND       PRES   REMARKS
CHICAGO-OHARE  PTSUNNY   58  29  33 N13G21    29.98S                  
CHICAGO-MIDWAY PTSUNNY   55  35  47 NE14      29.98R                  
AURORA         MOSUNNY   59  30  33 N16G30    29.98S                  
JOLIET*        MOSUNNY   61  33  35 N10G22    29.98S                  
WAUKEGAN       PTSUNNY   55  31  39 N14G22    29.99S                  
DUPAGE AIRPORT PTSUNNY   58  30  34 NW17G30   29.98F                  
KANKAKEE*      PTSUNNY   62  38  41 NW15G22   29.95F                  
WHEELING       PTSUNNY   60  29  30 NW20G25   30.01R                  
MORRIS*        PTSUNNY   61  30  31 NW9G16    29.97S                  
ROMEOVILLE*    MOSUNNY   59  32  36 N17G25    29.98S                  
LANSING*       MOSUNNY   55  39  55 NE14G21   29.99R                  
NORTHERLY ISL*   N/A     51  40  65 N12         N/A                   
$$


SKY/WX - Weather  TMP - Temperature  DP - Dew Point  RH - Relative Humidity
WIND - Wind Direction/Speed PRES - Barometric Pressure VSB - Visibility
WCI - Wind Chill Index E13G22 Wind - East Wind 13 mph/Gusts of 22 mph